This demonstration page uses our WeatherBlox Daily Observations layout. Learn more.

Left ArrowRight Arrow

44.89941, -97.11507

Hourly Observations for May 25, 2019

Temp ( °F °C ) Dew Point ( °F °C ) Humidity (%) Winds ( mph kmh ) Pressure ( in mb ) Visibility ( mi km ) Precip ( " mm )
12:53 am 00:53 Clear 54 12.2 45 7.2 72 72 W 13 20 29.73 1007 10 16 0.00 0.00
1:53 am 01:53 Clear 51 10.6 44 6.7 77 77 WSW 8 13 29.75 1007 10 16 0.00 0.00
2:53 am 02:53 Clear 50 10 44 6.7 80 80 W 10 17 29.77 1008 10 16 0.00 0.00
3:53 am 03:53 Clear 49 9.4 44 6.7 83 83 W 13 20 29.78 1008 10 16 0.00 0.00
4:53 am 04:53 Clear 48 8.9 44 6.7 86 86 W 12 19 29.79 1009 10 16 0.00 0.00
5:53 am 05:53 Sunny 47 8.3 44 6.7 90 90 W 10 17 29.81 1010 10 16 0.00 0.00
6:53 am 06:53 Sunny 48 8.9 44 6.7 86 86 W 13 20 29.83 1010 10 16 0.00 0.00
7:53 am 07:53 Sunny 50 10 45 7.2 83 83 W 12 19 29.85 1011 10 16 0.00 0.00
8:53 am 08:53 Mostly Sunny 52 11.1 46 7.8 80 80 WNW 14 22 29.87 1012 10 16 0.00 0.00
9:21 am 09:21 Mostly Cloudy 53 11.7 46 7.8 77 77 WNW 12 19 29.88 1012 10 16 0.00 0.00
9:53 am 09:53 Cloudy 54 12.2 46 7.8 75 75 WNW 16 26 29.89 1012 10 16 0.00 0.00
10:09 am 10:09 Mostly Cloudy 56 13.3 46 7.8 70 70 W 16 26 29.88 1012 10 16 0.00 0.00
10:27 am 10:27 Cloudy 55 12.8 46 7.8 72 72 WNW 10 17 29.88 1012 10 16 0.00 0.00
10:35 am 10:35 Cloudy 56 13.3 45 7.2 67 67 WNW 13 20 29.88 1012 10 16 0.00 0.00
10:53 am 10:53 Mostly Cloudy 57 13.9 43 6.1 60 60 W 21 33 29.90 1013 10 16 0.00 0.00
11:53 am 11:53 Cloudy 58 14.4 44 6.7 60 60 WNW 16 26 29.93 1013 10 16 0.00 0.00
12:53 pm 12:53 Cloudy 58 14.4 47 8.3 67 67 WNW 12 19 29.95 1014 10 16 0.00 0.00
1:53 pm 13:53 Cloudy 58 14.4 46 7.8 65 65 WNW 10 17 29.96 1015 10 16 0.00 0.00
2:53 pm 14:53 Cloudy 59 15 46 7.8 62 62 NW 13 20 29.97 1015 10 16 0.00 0.00
3:53 pm 15:53 Cloudy 61 16.1 47 8.3 60 60 NW 12 19 29.98 1015 10 16 0.00 0.00
4:53 pm 16:53 Partly Cloudy 62 16.7 46 7.8 56 56 NW 10 17 29.98 1015 10 16 0.00 0.00
5:53 pm 17:53 Sunny 62 16.7 46 7.8 56 56 NW 9 15 29.98 1015 10 16 0.00 0.00
6:53 pm 18:53 Sunny 62 16.7 46 7.8 56 56 NW 9 15 29.99 1016 10 16 0.00 0.00
7:53 pm 19:53 Sunny 60 15.6 45 7.2 58 58 NW 5 7 29.98 1015 10 16 0.00 0.00
8:53 pm 20:53 Sunny 53 11.7 45 7.2 74 74 NNE 6 9 29.98 1015 10 16 0.00 0.00
9:53 pm 21:53 Clear 54 12.2 45 7.2 72 72 Calm 30.03 1017 10 16 0.00 0.00
10:53 pm 22:53 Clear 52 11.1 45 7.2 77 77 Calm 30.04 1017 10 16 0.00 0.00
11:53 pm 23:53 Clear 49 9.4 44 6.7 83 83 Calm 30.05 1018 10 16 0.00 0.00

Powered by AerisWeather